TimeCDT,TemperatureF,Dew PointF,Humidity,Sea Level PressureIn,VisibilityMPH,Wind Direction,Wind SpeedMPH,Gust SpeedMPH,PrecipitationIn,Events,Conditions,WindDirDegrees,DateUTC
12:00 AM,53.6,53.6,100,30.11,2.0,Calm,Calm,-,N/A,,Partly Cloudy,0,2011-10-24 05:00:00
12:07 AM,51.8,51.8,100,30.11,3.0,Calm,Calm,-,N/A,,Partly Cloudy,0,2011-10-24 05:07:00
12:13 AM,51.8,51.8,100,30.12,1.5,Calm,Calm,-,N/A,,Scattered Clouds,0,2011-10-24 05:13:00
12:16 AM,51.8,51.8,100,30.12,0.8,Calm,Calm,-,N/A,,Mist,0,2011-10-24 05:16:00
12:47 AM,51.8,51.8,100,30.13,1.2,Calm,Calm,-,N/A,,Partly Cloudy,0,2011-10-24 05:47:00
12:53 AM,52.0,52.0,100,30.12,1.0,Calm,Calm,-,N/A,,Mist,0,2011-10-24 05:53:00
1:11 AM,51.8,51.8,100,30.13,2.5,Calm,Calm,-,N/A,,Scattered Clouds,0,2011-10-24 06:11:00
1:20 AM,51.8,51.8,100,30.13,6.0,Calm,Calm,-,N/A,,Scattered Clouds,0,2011-10-24 06:20:00
1:26 AM,51.8,50.0,94,30.13,1.8,Calm,Calm,-,N/A,,Partly Cloudy,0,2011-10-24 06:26:00
1:30 AM,51.8,50.0,94,30.13,0.8,Calm,Calm,-,N/A,,Mist,0,2011-10-24 06:30:00
1:42 AM,50.0,50.0,100,30.12,0.5,Calm,Calm,-,N/A,Fog,Fog,0,2011-10-24 06:42:00
1:53 AM,51.1,51.1,100,30.12,0.5,Calm,Calm,-,N/A,Fog,Fog,0,2011-10-24 06:53:00
2:09 AM,51.8,50.0,94,30.13,0.5,Calm,Calm,-,N/A,Fog,Fog,0,2011-10-24 07:09:00
2:30 AM,51.8,50.0,94,30.13,1.0,Calm,Calm,-,N/A,,Mist,0,2011-10-24 07:30:00
2:38 AM,51.8,50.0,94,30.13,0.8,Calm,Calm,-,N/A,,Mist,0,2011-10-24 07:38:00
2:53 AM,50.0,48.9,96,30.12,0.8,Calm,Calm,-,N/A,,Mist,0,2011-10-24 07:53:00
3:34 AM,48.2,48.2,100,30.12,1.0,Calm,Calm,-,N/A,,Mist,0,2011-10-24 08:34:00
3:43 AM,48.2,48.2,100,30.12,0.8,Calm,Calm,-,N/A,,Mist,0,2011-10-24 08:43:00
3:53 AM,50.0,48.9,96,30.11,1.2,Calm,Calm,-,N/A,,Partly Cloudy,0,2011-10-24 08:53:00
3:59 AM,48.2,48.2,100,30.12,3.0,Calm,Calm,-,N/A,,Partly Cloudy,0,2011-10-24 08:59:00
4:31 AM,48.2,48.2,100,30.13,1.8,Calm,Calm,-,N/A,,Clear,0,2011-10-24 09:31:00
4:40 AM,48.2,48.2,100,30.13,0.5,Calm,Calm,-,N/A,Fog,Fog,0,2011-10-24 09:40:00
4:53 AM,48.9,48.0,97,30.12,0.5,Calm,Calm,-,N/A,Fog,Fog,0,2011-10-24 09:53:00
5:39 AM,48.2,48.2,100,30.14,0.8,Calm,Calm,-,N/A,,Mist,0,2011-10-24 10:39:00
5:53 AM,48.0,48.0,100,30.14,0.8,Calm,Calm,-,N/A,,Mist,0,2011-10-24 10:53:00
6:19 AM,48.2,48.2,100,30.15,2.0,Calm,Calm,-,N/A,,Overcast,0,2011-10-24 11:19:00
6:29 AM,48.2,48.2,100,30.16,4.0,Calm,Calm,-,N/A,,Overcast,0,2011-10-24 11:29:00
6:49 AM,50.0,50.0,100,30.17,6.0,Calm,Calm,-,N/A,,Overcast,0,2011-10-24 11:49:00
6:53 AM,50.0,50.0,100,30.17,7.0,Calm,Calm,-,N/A,,Overcast,0,2011-10-24 11:53:00
7:44 AM,53.6,53.6,100,30.19,1.8,NNE,3.5,-,N/A,,Overcast,30,2011-10-24 12:44:00
7:51 AM,53.6,53.6,100,30.19,2.0,NNE,3.5,-,N/A,,Overcast,30,2011-10-24 12:51:00
7:53 AM,53.1,53.1,100,30.19,2.5,Calm,Calm,-,N/A,,Overcast,0,2011-10-24 12:53:00
8:02 AM,53.6,53.6,100,30.20,3.0,NNE,3.5,-,N/A,,Overcast,30,2011-10-24 13:02:00
8:06 AM,53.6,53.6,100,30.20,1.8,NNE,3.5,-,N/A,,Overcast,30,2011-10-24 13:06:00
8:13 AM,53.6,53.6,100,30.20,0.2,NNE,4.6,-,N/A,Fog,Fog,30,2011-10-24 13:13:00
8:27 AM,53.6,53.6,100,30.21,1.0,NE,3.5,-,N/A,,Overcast,40,2011-10-24 13:27:00
8:32 AM,53.6,53.6,100,30.21,3.0,NE,3.5,-,N/A,,Overcast,40,2011-10-24 13:32:00
8:53 AM,54.0,54.0,100,30.21,6.0,NNE,3.5,-,N/A,,Overcast,20,2011-10-24 13:53:00
9:18 AM,53.6,53.6,100,30.22,1.8,NNE,3.5,-,N/A,,Overcast,20,2011-10-24 14:18:00
9:46 AM,55.4,55.4,100,30.21,0.8,NNE,3.5,-,N/A,,Overcast,30,2011-10-24 14:46:00
9:53 AM,55.9,55.9,100,30.21,0.8,Calm,Calm,-,N/A,,Overcast,0,2011-10-24 14:53:00
10:03 AM,55.4,55.4,100,30.22,1.2,Calm,Calm,-,N/A,,Overcast,0,2011-10-24 15:03:00
10:23 AM,55.4,55.4,100,30.22,2.5,Calm,Calm,-,N/A,,Overcast,0,2011-10-24 15:23:00
10:45 AM,57.2,57.2,100,30.22,1.5,Calm,Calm,-,N/A,,Overcast,0,2011-10-24 15:45:00
10:53 AM,57.0,57.0,100,30.22,1.0,Calm,Calm,-,N/A,,Overcast,0,2011-10-24 15:53:00
11:14 AM,57.2,57.2,100,30.22,2.5,Calm,Calm,-,N/A,,Overcast,0,2011-10-24 16:14:00
11:21 AM,57.2,57.2,100,30.23,3.0,Calm,Calm,-,N/A,,Overcast,0,2011-10-24 16:21:00
11:53 AM,60.1,57.9,93,30.22,4.0,Calm,Calm,-,N/A,,Overcast,0,2011-10-24 16:53:00
12:41 PM,64.4,59.0,83,30.21,9.0,SSE,4.6,-,N/A,,Mostly Cloudy,160,2011-10-24 17:41:00
12:53 PM,64.0,59.0,84,30.20,10.0,South,4.6,-,N/A,,Scattered Clouds,170,2011-10-24 17:53:00
2:53 PM,71.1,60.1,68,30.15,10.0,Variable,4.6,-,N/A,,Clear,0,2011-10-24 19:53:00
3:53 PM,73.0,59.0,61,30.14,10.0,Calm,Calm,-,N/A,,Clear,0,2011-10-24 20:53:00
4:53 PM,75.0,57.9,55,30.13,10.0,Calm,Calm,-,N/A,,Clear,0,2011-10-24 21:53:00
5:53 PM,73.9,57.9,57,30.13,10.0,Calm,Calm,-,N/A,,Clear,0,2011-10-24 22:53:00
6:53 PM,64.0,60.1,87,30.14,10.0,Calm,Calm,-,N/A,,Clear,0,2011-10-24 23:53:00
7:53 PM,59.0,57.9,96,30.14,10.0,Calm,Calm,-,N/A,,Clear,0,2011-10-25 00:53:00
9:50 PM,53.6,53.6,100,30.15,1.8,Calm,Calm,-,N/A,,Clear,0,2011-10-25 02:50:00
9:58 PM,55.4,53.6,94,30.16,3.0,Calm,Calm,-,N/A,,Clear,0,2011-10-25 02:58:00
10:12 PM,55.4,53.6,94,30.16,1.8,Calm,Calm,-,N/A,,Clear,0,2011-10-25 03:12:00
10:23 PM,53.6,53.6,100,30.16,3.0,Calm,Calm,-,N/A,,Clear,0,2011-10-25 03:23:00
10:31 PM,53.6,53.6,100,30.16,1.8,Calm,Calm,-,N/A,,Clear,0,2011-10-25 03:31:00
10:48 PM,53.6,53.6,100,30.16,3.0,Calm,Calm,-,N/A,,Clear,0,2011-10-25 03:48:00
10:53 PM,54.0,53.1,97,30.15,2.5,Calm,Calm,-,N/A,,Clear,0,2011-10-25 03:53:00
11:05 PM,53.6,53.6,100,30.16,3.0,Calm,Calm,-,N/A,,Clear,0,2011-10-25 04:05:00
11:47 PM,51.8,51.8,100,30.15,1.8,Calm,Calm,-,N/A,,Clear,0,2011-10-25 04:47:00
11:53 PM,52.0,51.1,97,30.14,0.8,Calm,Calm,-,N/A,,Mist,0,2011-10-25 04:53:00